CW4427 Weather Reports


Display with metric or nautical units.
time (UTC)temp
F
wind
direction
speed
MPH
gust
MPH
rain 1hr
in
rain 24hr
in
rain mn
in
humidity
%
barometer
mb
20260831064342 78 169 0.0 0.0 0.00 0.00 0.00 79 1017.0
20260831063842 78 169 0.0 0.0 0.00 0.00 0.00 79 1017.1
20260831063342 78 169 0.0 0.0 0.00 0.00 0.00 79 1017.2
20260831062841 78 169 0.0 0.0 0.00 0.00 0.00 80 1017.2
20260831061841 78 169 0.0 0.0 0.00 0.00 0.00 79 1017.3
20260831060841 78 169 0.0 0.0 0.00 0.00 0.00 79 1017.2
20260831060342 78 169 0.0 0.0 0.00 0.00 0.00 79 1017.2
20260831055841 78 169 0.0 0.0 0.00 0.00 0.00 79 1017.2
20260831055341 79 169 0.0 0.0 0.00 0.00 0.00 79 1017.2
20260831054841 79 169 0.0 0.0 0.00 0.00 0.00 78 1017.3
20260831053841 79 169 0.0 0.0 0.00 0.00 0.00 77 1017.4
20260831053341 79 169 0.0 0.0 0.00 0.00 0.00 77 1017.3
20260831052841 80 169 0.0 0.0 0.00 0.00 0.00 77 1017.2
20260831052341 80 169 0.0 0.0 0.00 0.00 0.00 76 1017.1
20260831051841 80 169 0.0 0.0 0.00 0.00 0.00 76 1017.2
20260831051341 80 169 0.0 0.0 0.00 0.00 0.00 75 1017.3
20260831050841 80 169 0.0 0.0 0.00 0.00 0.00 75 1017.1
20260831050341 81 169 0.0 0.0 0.00 0.00 0.00 74 1017.2
20260831045911 81 169 0.0 0.0 0.00 0.00 0.00 74 1017.1
20260831045341 81 169 0.0 0.0 0.00 0.00 0.00 73 1017.1
20260831044841 81 169 0.0 0.0 0.00 0.00 0.00 73 1017.1
20260831044341 81 169 0.0 0.0 0.00 0.00 0.00 73 1017.0
20260831043841 82 169 0.0 0.0 0.00 0.00 0.00 72 1017.2
20260831043341 82 169 0.0 0.0 0.00 0.00 0.00 71 1017.3
20260831042841 82 169 0.0 1.0 0.00 0.00 0.00 72 1017.3
20260831041841 83 167 0.0 3.0 0.00 0.00 0.00 70 1017.2
20260831040841 83 153 0.0 2.0 0.00 0.00 0.00 69 1017.3
20260831040341 83 183 0.0 2.0 0.00 0.00 0.00 69 1017.3
20260831035910 83 131 1.0 2.0 0.00 0.00 0.00 69 1017.3
20260831035341 83 167 0.0 5.0 0.00 0.00 0.00 69 1017.2
20260831034841 84 167 1.0 5.0 0.00 0.00 0.00 68 1017.2
20260831034341 84 208 0.0 3.0 0.00 0.00 0.00 69 1017.1
20260831033841 84 202 0.0 5.0 0.00 0.00 0.00 69 1017.1
20260831033341 84 202 0.0 5.0 0.00 0.00 0.00 68 1017.0
20260831032841 84 134 0.0 0.0 0.00 0.00 0.00 67 1017.0
20260831032341 84 134 0.0 2.0 0.00 0.00 0.00 68 1017.0
20260831031841 84 196 0.0 2.0 0.00 0.00 0.00 67 1017.0
20260831031341 85 196 0.0 2.0 0.00 0.00 0.00 67 1016.9
20260831030841 85 190 0.0 2.0 0.00 0.00 0.00 66 1016.9
20260831030341 85 127 0.0 3.0 0.00 0.00 0.00 66 1016.9
20260831025911 85 179 0.0 3.0 0.00 0.00 0.00 67 1016.8
20260831025341 85 146 0.0 2.0 0.00 0.00 0.00 66 1016.8
20260831024841 85 158 0.0 2.0 0.00 0.00 0.00 67 1016.9
20260831024341 86 193 0.0 3.0 0.00 0.00 0.00 65 1016.8
20260831023841 86 186 0.0 3.0 0.00 0.00 0.00 64 1016.8
20260831023341 86 169 0.0 3.0 0.00 0.00 0.00 64 1016.8
20260831022841 86 105 2.0 4.0 0.00 0.00 0.00 63 1016.8
20260831022341 86 180 2.0 4.0 0.00 0.00 0.00 64 1016.7
20260831021840 86 98 0.0 3.0 0.00 0.00 0.00 65 1016.7
20260831021341 86 196 0.0 4.0 0.00 0.00 0.00 65 1016.5
20260831020841 85 145 0.0 4.0 0.00 0.00 0.00 67 1016.4
20260831020341 85 192 1.0 3.0 0.00 0.00 0.00 68 1016.4
20260831015411 84 149 0.0 0.0 0.00 0.00 0.00 69 1016.4
20260831014910 84 113 0.0 0.0 0.00 0.00 0.00 70 1016.3
20260831014410 84 112 0.0 0.0 0.00 0.00 0.00 70 1016.3
20260831013910 84 112 0.0 0.0 0.00 0.00 0.00 70 1016.2
20260831013410 84 112 0.0 0.0 0.00 0.00 0.00 69 1016.2
20260831012410 84 112 0.0 0.0 0.00 0.00 0.00 68 1016.0
20260831011911 85 112 0.0 0.0 0.00 0.00 0.00 68 1015.9
20260831011410 85 112 0.0 0.0 0.00 0.00 0.00 67 1015.9
20260831010910 85 112 0.0 0.0 0.00 0.00 0.00 67 1015.8
20260831010410 86 112 0.0 0.0 0.00 0.00 0.00 66 1015.7
20260831005910 86 112 0.0 0.0 0.00 0.00 0.00 65 1015.8
20260831005410 86 112 0.0 0.0 0.00 0.00 0.00 65 1015.6
20260831004910 86 112 0.0 0.0 0.00 0.00 0.00 65 1015.5
20260831004410 87 112 0.0 0.0 0.00 0.00 0.00 63 1015.5
20260831003910 88 172 0.0 1.0 0.00 0.00 0.00 61 1015.7
20260831002909 89 117 0.0 4.0 0.00 0.00 0.00 60 1015.7
20260831002409 90 148 0.0 6.0 0.00 0.00 0.00 58 1015.7
20260831001409 90 94 2.0 7.0 0.00 0.00 0.00 56 1015.4
20260831000910 91 131 1.0 6.0 0.00 0.00 0.00 57 1015.5
20260831000410 91 96 3.0 6.0 0.00 0.00 0.00 56 1015.4
20260830235909 91 148 3.0 7.0 0.00 0.00 0.00 55 1015.6
20260830235409 92 163 1.0 7.0 0.00 0.00 0.00 55 1015.5
20260830234909 92 121 3.0 4.0 0.00 0.00 0.00 54 1015.6
20260830234409 92 215 1.0 6.0 0.00 0.00 0.00 54 1015.5
20260830233908 93 188 4.0 6.0 0.00 0.00 0.00 52 1015.5
20260830232409 93 207 4.0 6.0 0.00 0.00 0.00 50 1015.5
20260830231908 94 211 4.0 7.0 0.00 0.00 0.00 50 1015.5
20260830231408 94 191 2.0 7.0 0.00 0.00 0.00 49 1015.4
20260830230908 94 209 2.0 8.0 0.00 0.00 0.00 50 1015.3
20260830230408 94 192 4.0 8.0 0.00 0.00 0.00 49 1015.4
20260830225408 95 106 3.0 5.0 0.00 0.00 0.00 48 1015.3
20260830224908 95 127 0.0 4.0 0.00 0.00 0.00 48 1015.3
20260830224408 95 209 3.0 4.0 0.00 0.00 0.00 47 1015.4
20260830223907 94 219 0.0 5.0 0.00 0.00 0.00 50 1015.4
20260830223407 94 109 1.0 8.0 0.00 0.00 0.00 50 1015.5
20260830222907 94 167 4.0 8.0 0.00 0.00 0.00 50 1015.4
20260830221908 95 78 2.0 7.0 0.00 0.00 0.00 48 1015.3
20260830220908 96 180 0.0 5.0 0.00 0.00 0.00 46 1015.4
20260830220407 96 290 1.0 5.0 0.00 0.00 0.00 46 1015.5
20260830215907 96 18 1.0 5.0 0.00 0.00 0.00 46 1015.4
20260830215408 97 35 1.0 11.0 0.00 0.00 0.00 45 1015.5
20260830214908 97 116 1.0 11.0 0.00 0.00 0.00 45 1015.4
20260830214407 97 194 3.0 8.0 0.00 0.00 0.00 45 1015.4
20260830213407 98 181 5.0 8.0 0.00 0.00 0.00 44 1015.5
20260830212907 97 284 3.0 4.0 0.00 0.00 0.00 46 1015.6
20260830212407 97 212 1.0 5.0 0.00 0.00 0.00 46 1015.7
20260830211907 97 152 1.0 5.0 0.00 0.00 0.00 46 1015.7
20260830211407 97 237 2.0 5.0 0.00 0.00 0.00 47 1015.7
20260830210907 96 252 2.0 5.0 0.00 0.00 0.00 50 1015.8
20260830210407 96 142 3.0 5.0 0.00 0.00 0.00 47 1015.8
20260830205907 96 115 1.0 2.0 0.00 0.00 0.00 48 1015.9
20260830204907 95 196 0.0 7.0 0.00 0.00 0.00 48 1015.9
20260830203907 95 224 0.0 7.0 0.00 0.00 0.00 47 1016.0
20260830203406 96 177 4.0 7.0 0.00 0.00 0.00 46 1016.2
20260830202906 97 202 3.0 6.0 0.00 0.00 0.00 45 1016.3
20260830202406 98 206 2.0 6.0 0.00 0.00 0.00 46 1016.3
20260830201906 98 206 3.0 7.0 0.00 0.00 0.00 45 1016.2
20260830201406 98 292 1.0 7.0 0.00 0.00 0.00 45 1016.4
20260830200406 98 182 1.0 9.0 0.00 0.00 0.00 45 1016.5
20260830195905 97 123 1.0 9.0 0.00 0.00 0.00 45 1016.4
20260830194906 97 88 2.0 7.0 0.00 0.00 0.00 45 1016.7
20260830194406 98 213 3.0 7.0 0.00 0.00 0.00 48 1016.7
20260830193906 97 170 6.0 7.0 0.00 0.00 0.00 47 1016.8
20260830193405 96 289 3.0 7.0 0.00 0.00 0.00 48 1016.9
20260830191905 95 158 0.0 9.0 0.00 0.00 0.00 46 1017.1
20260830190906 95 200 1.0 10.0 0.00 0.00 0.00 47 1017.0
20260830190405 95 240 3.0 11.0 0.00 0.00 0.00 47 1017.1
20260830185905 97 194 4.0 11.0 0.00 0.00 0.00 45 1017.2
20260830185405 96 211 2.0 9.0 0.00 0.00 0.00 51 1017.3
20260830184905 95 338 2.0 9.0 0.00 0.00 0.00 47 1017.3
20260830184405 96 217 3.0 9.0 0.00 0.00 0.00 47 1017.4
20260830183405 96 159 4.0 9.0 0.00 0.00 0.00 51 1017.4
20260830182904 95 231 0.0 4.0 0.00 0.00 0.00 50 1017.6
20260830182405 94 59 2.0 4.0 0.00 0.00 0.00 50 1017.7
20260830181905 94 88 2.0 4.0 0.00 0.00 0.00 51 1017.6
20260830180905 94 155 4.0 6.0 0.00 0.00 0.00 52 1017.6
20260830180405 92 236 2.0 4.0 0.00 0.00 0.00 51 1017.6
20260830175904 92 173 2.0 5.0 0.00 0.00 0.00 51 1017.5
20260830174905 95 217 1.0 5.0 0.00 0.00 0.00 50 1017.5
20260830173904 95 278 0.0 7.0 0.00 0.00 0.00 49 1017.6
20260830173405 94 219 0.0 7.0 0.00 0.00 0.00 50 1017.8
20260830172404 95 229 1.0 8.0 0.00 0.00 0.00 48 1017.8
20260830171904 95 246 2.0 8.0 0.00 0.00 0.00 50 1017.9
20260830171405 95 265 1.0 5.0 0.00 0.00 0.00 50 1017.9
20260830170904 95 265 2.0 7.0 0.00 0.00 0.00 49 1018.0
20260830165905 96 209 2.0 9.0 0.00 0.00 0.00 47 1018.2
20260830164904 95 102 3.0 6.0 0.00 0.00 0.00 49 1018.2
20260830164404 94 144 2.0 3.0 0.00 0.00 0.00 50 1018.2
20260830163405 94 300 2.0 9.0 0.00 0.00 0.00 49 1018.4
20260830162904 95 200 3.0 9.0 0.00 0.00 0.00 50 1018.5
20260830162404 95 268 3.0 6.0 0.00 0.00 0.00 49 1018.5
20260830161904 94 306 1.0 7.0 0.00 0.00 0.00 50 1018.5
20260830161404 93 203 3.0 9.0 0.00 0.00 0.00 51 1018.5
20260830160904 93 228 2.0 9.0 0.00 0.00 0.00 48 1018.5
20260830155904 93 207 3.0 5.0 0.00 0.00 0.00 50 1018.4
20260830155404 93 247 0.0 5.0 0.00 0.00 0.00 51 1018.6
20260830154904 93 200 4.0 6.0 0.00 0.00 0.00 53 1018.6
20260830154403 93 285 1.0 6.0 0.00 0.00 0.00 47 1018.5
20260830153904 92 271 1.0 6.0 0.00 0.00 0.00 49 1018.5
20260830152904 92 194 2.0 6.0 0.00 0.00 0.00 50 1018.5
20260830152404 92 264 1.0 6.0 0.00 0.00 0.00 52 1018.4
20260830151904 91 192 4.0 6.0 0.00 0.00 0.00 55 1018.5
20260830151403 91 204 2.0 5.0 0.00 0.00 0.00 53 1018.5
20260830150904 90 210 2.0 5.0 0.00 0.00 0.00 57 1018.4
20260830150403 89 251 2.0 6.0 0.00 0.00 0.00 54 1018.5
20260830145903 89 259 2.0 6.0 0.00 0.00 0.00 58 1018.5
20260830144903 88 138 1.0 4.0 0.00 0.00 0.00 60 1018.5
20260830144404 88 240 0.0 5.0 0.00 0.00 0.00 59 1018.6
20260830143903 87 233 2.0 5.0 0.00 0.00 0.00 60 1018.7
20260830143403 87 191 4.0 4.0 0.00 0.00 0.00 60 1018.6
20260830142903 87 252 1.0 5.0 0.00 0.00 0.00 62 1018.7
20260830142403 86 229 0.0 7.0 0.00 0.00 0.00 64 1018.7
20260830141903 85 205 1.0 7.0 0.00 0.00 0.00 66 1018.8
20260830141403 85 158 0.0 5.0 0.00 0.00 0.00 64 1018.8
20260830140903 84 157 2.0 5.0 0.00 0.00 0.00 66 1018.7
20260830140403 84 193 2.0 6.0 0.00 0.00 0.00 67 1018.8
20260830135903 83 223 2.0 7.0 0.00 0.00 0.00 69 1018.9
20260830135403 82 223 2.0 7.0 0.00 0.00 0.00 69 1018.9
20260830133903 79 144 0.0 3.0 0.00 0.00 0.00 75 1018.8
20260830133402 78 159 0.0 0.0 0.00 0.00 0.00 80 1018.8
20260830132903 77 145 0.0 0.0 0.00 0.00 0.00 81 1018.7
20260830132403 76 145 0.0 2.0 0.00 0.00 0.00 83 1018.8
20260830131902 75 145 0.0 2.0 0.00 0.00 0.00 84 1018.8
20260830130902 74 145 0.0 0.0 0.00 0.00 0.00 86 1018.8
20260830130402 73 145 0.0 0.0 0.00 0.00 0.00 87 1018.7
20260830125902 73 145 0.0 3.0 0.00 0.00 0.00 87 1018.7
20260830124903 71 205 2.0 2.0 0.00 0.00 0.00 90 1018.6
20260830124402 71 159 0.0 0.0 0.00 0.00 0.00 90 1018.4
20260830123902 70 159 0.0 0.0 0.00 0.00 0.00 92 1018.4
20260830122902 69 159 0.0 0.0 0.00 0.00 0.00 92 1018.5
20260830122402 68 159 0.0 0.0 0.00 0.00 0.00 93 1018.4
20260830121902 68 155 0.0 0.0 0.00 0.00 0.00 93 1018.3
20260830121403 68 155 0.0 0.0 0.00 0.00 0.00 93 1018.4
20260830120902 68 155 0.0 0.0 0.00 0.00 0.00 93 1018.3
20260830120402 67 155 0.0 0.0 0.00 0.00 0.00 93 1018.2
20260830115902 67 155 0.0 0.0 0.00 0.00 0.00 93 1018.0
20260830114902 67 155 0.0 0.0 0.00 0.00 0.00 93 1017.9
20260830114402 67 49 0.0 0.0 0.00 0.00 0.00 93 1017.9
20260830113902 67 49 0.0 0.0 0.00 0.00 0.00 93 1017.9
20260830113402 67 49 0.0 0.0 0.00 0.00 0.00 93 1017.9
20260830112902 67 49 0.0 0.0 0.00 0.00 0.00 93 1017.9
20260830112402 67 49 0.0 0.0 0.00 0.00 0.00 93 1017.7
20260830111902 67 49 0.0 0.0 0.00 0.00 0.00 93 1017.7
20260830111402 67 49 0.0 0.0 0.00 0.00 0.00 93 1017.7
20260830110902 67 108 0.0 0.0 0.00 0.00 0.00 93 1017.5
20260830110402 67 108 0.0 0.0 0.00 0.00 0.00 92 1017.3
20260830105402 67 108 0.0 0.0 0.00 0.00 0.00 92 1017.2
20260830104402 67 108 0.0 0.0 0.00 0.00 0.00 93 1017.1
20260830103902 67 108 0.0 0.0 0.00 0.00 0.00 93 1017.2
20260830103402 67 108 0.0 0.0 0.00 0.00 0.00 93 1017.2
20260830102902 67 108 0.0 0.0 0.00 0.00 0.00 93 1017.2
20260830102402 67 108 0.0 0.0 0.00 0.00 0.00 92 1017.2
20260830101901 67 108 0.0 0.0 0.00 0.00 0.00 92 1017.2
20260830100902 67 108 0.0 0.0 0.00 0.00 0.00 92 1017.2
20260830100402 67 108 0.0 0.0 0.00 0.00 0.00 92 1017.2
20260830095402 68 108 0.0 0.0 0.00 0.00 0.00 92 1017.1
20260830094902 67 108 0.0 0.0 0.00 0.00 0.00 92 1017.1
20260830094402 68 108 0.0 0.0 0.00 0.00 0.00 92 1017.2
20260830093901 68 108 0.0 0.0 0.00 0.00 0.00 92 1017.3
20260830093401 67 108 0.0 0.0 0.00 0.00 0.00 91 1017.1
20260830092901 68 108 0.0 0.0 0.00 0.00 0.00 91 1017.3
20260830092401 68 108 0.0 0.0 0.00 0.00 0.00 91 1017.4
20260830091401 68 108 0.0 0.0 0.00 0.00 0.00 91 1017.3
20260830090901 68 108 0.0 0.0 0.00 0.00 0.00 91 1017.3
20260830090401 68 108 0.0 0.0 0.00 0.00 0.00 91 1017.3
20260830085902 68 108 0.0 0.0 0.00 0.00 0.00 91 1017.3
20260830085401 68 108 0.0 0.0 0.00 0.00 0.00 91 1017.2
20260830084901 68 108 0.0 0.0 0.00 0.00 0.00 91 1017.2
20260830084401 68 108 0.0 0.0 0.00 0.00 0.00 91 1017.4
20260830083901 68 108 0.0 0.0 0.00 0.00 0.00 91 1017.3
20260830083401 68 108 0.0 0.0 0.00 0.00 0.00 91 1017.4
20260830082901 68 108 0.0 0.0 0.00 0.00 0.00 91 1017.4
20260830082401 68 108 0.0 0.0 0.00 0.00 0.00 90 1017.5
20260830081901 68 108 0.0 0.0 0.00 0.00 0.00 90 1017.5
20260830081401 68 108 0.0 0.0 0.00 0.00 0.00 90 1017.5
20260830080901 68 108 0.0 0.0 0.00 0.00 0.00 90 1017.4
20260830075900 69 108 0.0 0.0 0.00 0.00 0.00 90 1017.4
20260830075400 69 108 0.0 0.0 0.00 0.00 0.00 90 1017.4
20260830074400 69 108 0.0 0.0 0.00 0.00 0.00 89 1017.4
20260830073900 69 108 0.0 0.0 0.00 0.00 0.00 89 1017.5
20260830073400 69 108 0.0 0.0 0.00 0.00 0.00 89 1017.6
20260830072900 69 108 0.0 0.0 0.00 0.00 0.00 89 1017.7
20260830072400 69 108 0.0 0.0 0.00 0.00 0.00 89 1017.6
20260830071900 69 108 0.0 0.0 0.00 0.00 0.00 88 1017.6
20260830070400 69 108 0.0 0.0 0.00 0.00 0.00 88 1017.7
20260830065900 69 108 0.0 0.0 0.00 0.00 0.00 88 1017.6
20260830065359 70 108 0.0 0.0 0.00 0.00 0.00 88 1017.6
20260830064900 70 108 0.0 0.0 0.00 0.00 0.00 87 1017.8